Knoxville, IA

2:18 PM CST on January 24, 2017 (GMT -0600)
Knoxville Municipal

Weather History for KOXV - March, 2014

Change the Weather History Date:

Saturday, March 1, 2014

  Actual Average Record
Temperature  
Mean Temperature 11 °F -  
Max Temperature 21 °F 46 °F 77 °F (1992)
Min Temperature 1 °F 24 °F -16 °F (1962)
Degree Days  
Heating Degree Days 54    
Moisture  
Dew Point 1 °F    
Average Humidity 70    
Maximum Humidity 80    
Minimum Humidity 61    
Precipitation  
Precipitation 0.00 in - - ()
Sea Level Pressure  
Sea Level Pressure 30.30 in    
Wind  
Wind Speed 14 mph (North)    
Max Wind Speed 18 mph    
Max Gust Speed 26 mph    
Visibility 8 miles    
Events Snow    
Averages and records for this station are not official NWS values.
T = Trace of Precipitation, MM = Missing Value Source: NWS Daily Summary

Daily Weather History Graph

Daily Weather History Graph

Search for Another Location

Airport or City:

Trip Planner

Search our weather history database for the weather conditions in past years. The results will help you decide how hot, cold, wet, or windy it might be!

Date:

Astronomy

Mar. 01, 2014 Rise Set
Actual Time 6:46 AM CST 6:03 PM CST
Civil Twilight 6:19 AM CST 6:31 PM CST
Nautical Twilight 5:47 AM CST 7:03 PM CST
Astronomical Twilight 5:15 AM CST 7:35 PM CST
Moon 6:40 AM CST (3/1) 6:52 PM CST (3/1)
Length of Visible Light 12h 11m
Length of Day
11h 16m
New Moon, 0% of the Moon is Illuminated
Mar 1
New Moon
Mar 8
First Quarter
Mar 16
Full
Mar 23
Last Quarter
Mar 30
New

Hourly Weather History & Observations

Time (CST) Temp. Windchill Dew Point Humidity Pressure Visibility Wind Dir Wind Speed Gust Speed Precip Events Conditions
12:15 AM 21.2 °F 9.5 °F 15.8 °F 80% 30.08 in 10.0 mi NNW 11.5 mph - N/A   Overcast
12:35 AM 21.2 °F 10.1 °F 15.8 °F 80% 30.09 in 10.0 mi North 10.4 mph - N/A   Overcast
12:55 AM 21.2 °F 8.9 °F 14.0 °F 74% 30.10 in 10.0 mi North 12.7 mph - N/A   Overcast
1:15 AM 19.4 °F 6.0 °F 12.2 °F 74% 30.10 in 10.0 mi North 13.8 mph - N/A   Overcast
1:35 AM 19.4 °F 5.0 °F 14.0 °F 80% 30.11 in 8.0 mi NNW 16.1 mph - N/A   Overcast
1:55 AM 19.4 °F 7.9 °F 14.0 °F 80% 30.12 in 10.0 mi North 10.4 mph - N/A   Overcast
2:15 AM 19.4 °F 5.5 °F 14.0 °F 80% 30.13 in 10.0 mi NNW 15.0 mph - N/A   Overcast
2:30 AM 19.4 °F 6.0 °F 14.0 °F 80% 30.13 in 10.0 mi NNW 13.8 mph - N/A   Overcast
2:55 AM 17.6 °F 3.2 °F 12.2 °F 79% 30.14 in 10.0 mi North 15.0 mph 21.9 mph N/A   Overcast
3:15 AM 17.6 °F 1.7 °F 10.4 °F 73% 30.14 in 8.0 mi NNW 18.4 mph - N/A   Overcast
3:35 AM 15.8 °F -0.2 °F 8.6 °F 73% 30.14 in 10.0 mi NNW 17.3 mph - N/A   Overcast
3:55 AM 15.8 °F -0.6 °F 8.6 °F 73% 30.16 in 10.0 mi NNW 18.4 mph 26.5 mph N/A   Overcast
4:15 AM 14.0 °F -2.5 °F 6.8 °F 73% 30.17 in 10.0 mi NNW 17.3 mph 25.3 mph N/A   Overcast
4:35 AM 14.0 °F -1.4 °F 6.8 °F 73% 30.17 in 10.0 mi NNW 15.0 mph 20.7 mph N/A   Overcast
4:55 AM 12.2 °F -4.3 °F 5.0 °F 73% 30.17 in 10.0 mi NNW 16.1 mph 21.9 mph N/A   Overcast
5:15 AM 12.2 °F -4.3 °F 5.0 °F 73% 30.19 in 10.0 mi North 16.1 mph - N/A   Overcast
5:35 AM 12.2 °F -1.8 °F 5.0 °F 73% 30.21 in 10.0 mi NNW 11.5 mph 20.7 mph N/A   Overcast
5:55 AM 12.2 °F -2.5 °F 5.0 °F 73% 30.21 in 10.0 mi NNW 12.7 mph - N/A   Overcast
6:15 AM 12.2 °F -4.8 °F 5.0 °F 73% 30.25 in 10.0 mi NNW 17.3 mph - N/A   Overcast
6:35 AM 12.2 °F -4.3 °F 5.0 °F 73% 30.24 in 10.0 mi NNW 16.1 mph - N/A   Overcast
6:55 AM 12.2 °F -2.5 °F 3.2 °F 67% 30.25 in 10.0 mi North 12.7 mph - N/A   Overcast
7:15 AM 12.2 °F -4.3 °F 3.2 °F 67% 30.27 in 10.0 mi NNW 16.1 mph - N/A   Overcast
7:35 AM 10.4 °F -4.8 °F 3.2 °F 73% 30.26 in 10.0 mi NNW 12.7 mph - N/A   Overcast
7:55 AM 10.4 °F -6.0 °F 3.2 °F 73% 30.26 in 10.0 mi NNW 15.0 mph - N/A   Overcast
8:15 AM 10.4 °F -4.1 °F 3.2 °F 73% 30.28 in 10.0 mi North 11.5 mph 19.6 mph N/A   Overcast
8:35 AM 10.4 °F -5.4 °F 3.2 °F 73% 30.28 in 10.0 mi NNW 13.8 mph - N/A   Mostly Cloudy
8:55 AM 10.4 °F -6.0 °F 1.4 °F 67% 30.29 in 10.0 mi North 15.0 mph 20.7 mph N/A   Mostly Cloudy
9:15 AM 10.4 °F -4.8 °F 1.4 °F 67% 30.30 in 10.0 mi North 12.7 mph 19.6 mph N/A   Scattered Clouds
9:35 AM 10.4 °F -4.8 °F 1.4 °F 67% 30.31 in 10.0 mi North 12.7 mph - N/A   Mostly Cloudy
9:55 AM 10.4 °F -4.8 °F 1.4 °F 67% 30.34 in 10.0 mi NNW 12.7 mph 21.9 mph N/A   Overcast
10:15 AM 10.4 °F -6.0 °F 1.4 °F 67% 30.35 in 10.0 mi North 15.0 mph - N/A   Overcast
10:35 AM 10.4 °F -6.0 °F 1.4 °F 67% 30.34 in 10.0 mi North 15.0 mph - N/A   Overcast
10:55 AM 10.4 °F -4.8 °F 1.4 °F 67% 30.35 in 10.0 mi North 12.7 mph - N/A   Overcast
11:15 AM 10.4 °F -6.0 °F 1.4 °F 67% 30.35 in 10.0 mi NNW 15.0 mph - N/A   Overcast
11:35 AM 10.4 °F -4.1 °F 1.4 °F 67% 30.35 in 10.0 mi NNW 11.5 mph - N/A   Overcast
11:55 AM 10.4 °F -6.6 °F 1.4 °F 67% 30.35 in 10.0 mi NNW 16.1 mph - N/A   Overcast
12:15 PM 10.4 °F -6.0 °F 1.4 °F 67% 30.36 in 10.0 mi NNW 15.0 mph - N/A   Overcast
12:35 PM 10.4 °F -7.2 °F 1.4 °F 67% 30.35 in 10.0 mi North 17.3 mph - N/A   Overcast
12:55 PM 8.6 °F -9.5 °F -0.4 °F 67% 30.33 in 9.0 mi North 17.3 mph - N/A   Overcast
1:15 PM 8.6 °F -7.0 °F -0.4 °F 67% 30.32 in 10.0 mi North 12.7 mph 20.7 mph N/A   Overcast
1:35 PM 8.6 °F -8.3 °F -0.4 °F 67% 30.33 in 10.0 mi North 15.0 mph - N/A   Overcast
1:55 PM 8.6 °F -8.3 °F -0.4 °F 67% 30.34 in 10.0 mi North 15.0 mph - N/A   Overcast
2:15 PM 8.6 °F -8.3 °F -2.2 °F 62% 30.32 in 10.0 mi North 15.0 mph - N/A   Overcast
2:30 PM 6.8 °F -12.4 °F -2.2 °F 67% 30.33 in 9.0 mi North 18.4 mph - N/A   Overcast
2:55 PM 6.8 °F -10.7 °F -2.2 °F 67% 30.34 in 9.0 mi North 15.0 mph - N/A   Overcast
3:15 PM 6.8 °F -9.3 °F -2.2 °F 67% 30.35 in 9.0 mi North 12.7 mph 21.9 mph N/A Snow Light Snow
3:35 PM 6.8 °F -10.7 °F -2.2 °F 67% 30.35 in 9.0 mi North 15.0 mph - N/A   Overcast
3:55 PM 6.8 °F -11.8 °F -2.2 °F 67% 30.36 in 9.0 mi North 17.3 mph - N/A Snow Light Snow
4:15 PM 6.8 °F -9.3 °F -2.2 °F 67% 30.36 in 10.0 mi North 12.7 mph 19.6 mph N/A   Overcast
4:35 PM 6.8 °F -6.9 °F -2.2 °F 67% 30.37 in 10.0 mi North 9.2 mph 18.4 mph N/A   Overcast
4:55 PM 6.8 °F -8.6 °F -2.2 °F 67% 30.36 in 10.0 mi North 11.5 mph 18.4 mph N/A   Overcast
5:15 PM 6.8 °F -10.7 °F -2.2 °F 67% 30.36 in 5.0 mi NNW 15.0 mph - N/A Snow Light Snow
5:35 PM 5.0 °F -10.8 °F -2.2 °F 72% 30.37 in 10.0 mi North 11.5 mph 19.6 mph N/A   Overcast
5:55 PM 5.0 °F -10.8 °F -4.0 °F 66% 30.37 in 10.0 mi North 11.5 mph 18.4 mph N/A Snow Light Snow
6:15 PM 5.0 °F -10.8 °F -4.0 °F 66% 30.38 in 3.0 mi North 11.5 mph 19.6 mph N/A Snow Light Snow
6:35 PM 3.2 °F -15.3 °F -4.0 °F 72% 30.40 in 2.0 mi North 15.0 mph 20.7 mph N/A Snow Light Snow
6:55 PM 3.2 °F -13.9 °F -4.0 °F 72% 30.40 in 1.2 mi North 12.7 mph 19.6 mph N/A Snow Light Snow
7:15 PM 3.2 °F -13.9 °F -4.0 °F 72% 30.41 in 1.0 mi North 12.7 mph 19.6 mph N/A Snow Light Snow
7:35 PM 3.2 °F -13.1 °F -4.0 °F 72% 30.41 in 1.2 mi North 11.5 mph 20.7 mph N/A Snow Light Snow
7:55 PM 3.2 °F -14.6 °F -4.0 °F 72% 30.41 in 1.2 mi North 13.8 mph - N/A Snow Light Snow
8:15 PM 1.4 °F -18.2 °F -4.0 °F 78% 30.43 in - North 16.1 mph - N/A Snow Light Snow
8:35 PM 1.4 °F -17.6 °F -5.8 °F 72% 30.41 in 2.5 mi North 15.0 mph - N/A Snow Light Snow
8:50 PM 1.4 °F -15.3 °F -5.8 °F 72% 30.41 in 1.5 mi North 11.5 mph 20.7 mph N/A Snow Light Snow
9:15 PM 1.4 °F -16.9 °F -5.8 °F 72% 30.42 in 1.2 mi North 13.8 mph - N/A Snow Light Snow
9:35 PM 1.4 °F -16.1 °F -5.8 °F 72% 30.43 in 3.0 mi North 12.7 mph - N/A Snow Light Snow
9:55 PM 1.4 °F -15.3 °F -7.6 °F 66% 30.45 in 7.0 mi North 11.5 mph - N/A Snow Light Snow
10:15 PM 1.4 °F -16.9 °F -5.8 °F 72% 30.45 in 4.0 mi NNW 13.8 mph - N/A Snow Light Snow
10:35 PM 1.4 °F -16.1 °F -7.6 °F 66% 30.45 in 10.0 mi North 12.7 mph - N/A   Overcast
10:55 PM 1.4 °F -17.6 °F -7.6 °F 66% 30.44 in 10.0 mi NNW 15.0 mph - N/A   Overcast
11:15 PM 1.4 °F -16.9 °F -7.6 °F 66% 30.43 in 10.0 mi North 13.8 mph - N/A   Overcast
11:35 PM 1.4 °F -17.6 °F -7.6 °F 66% 30.43 in 10.0 mi North 15.0 mph 21.9 mph N/A   Overcast
11:55 PM 1.4 °F -19.4 °F -9.4 °F 61% 30.45 in 10.0 mi NNW 18.4 mph - N/A   Overcast